ONEWEB-0279 (48997 NORAD) Tracking and Keplerian Element Data

This shows tracking and keplerian element data for the satellite.

Feedback or suggestion? Click here.




ElementValue
Catalog48997
NameONEWEB-0279
Epoch Orbit1390
Epoch Day269.25001157
Epoch Year2021
RAAN211.8462
Inclination87.9757
Eccentricity0.0011464
Argument of Perigee345.0254
Mean Anonmoly304.2268
Mean Motion13.58121189
Decay Rate1.4E-07
L11 48997U 21060AG 21269.25001157 .00000014 00000-0 00000+0 0 9991
L22 48997 87.9757 211.8462 0011464 345.0254 304.2268 13.58121189 13902

Live tracking and technical data element details for ONEWEB-0279 (NORAD 48997). ONEWEB-0279 can be tracked NOW for your location showing map with azimuth and elevation plus other details from your city location.

Track the satellite on the map from your city or location and see movement details for azimuth, elevation, latitude, longitude, range, height, and movement on the map or in text.







IsCatalogInMostPopularTable: catalog: 48997, numindb: 15
Update: records affected: 1



GetName: 48997 ONEWEB-0279

Hit Count: updated at: Sun, 26 Sep 2021 16:30:14 GMT